| time (UTC) | temp F | wind direction | speed MPH | gust MPH | rain 1hr in | rain 24hr in | rain mn in | humidity % | barometer mb |
| 20260905043018 | 78 | 131 | 1.0 | 5.0 | 0.02 | 0.11 | 0.02 | 87 | 1010.1 |
| 20260905041558 | 78 | 181 | 0.0 | 1.0 | 0.00 | 0.09 | 0.00 | 86 | 1010.0 |
| 20260905040031 | 78 | 333 | 0.0 | 0.0 | 0.00 | 0.09 | 0.00 | 87 | 1009.9 |
| 20260905034617 | 78 | 340 | 0.0 | 0.0 | 0.00 | 0.09 | 0.09 | 87 | 1010.0 |
| 20260905033040 | 78 | 338 | 0.0 | 0.0 | 0.00 | 0.09 | 0.09 | 86 | 1010.1 |
| 20260905031504 | 78 | 337 | 0.0 | 0.0 | 0.00 | 0.09 | 0.09 | 86 | 1010.3 |
| 20260905030046 | 78 | 337 | 0.0 | 0.0 | 0.00 | 0.09 | 0.09 | 86 | 1010.4 |
| 20260905024513 | 79 | 337 | 0.0 | 0.0 | 0.00 | 0.09 | 0.09 | 85 | 1010.3 |
| 20260905023059 | 79 | 336 | 0.0 | 0.0 | 0.00 | 0.09 | 0.09 | 85 | 1010.3 |
| 20260905021535 | 79 | 330 | 0.0 | 0.0 | 0.00 | 0.09 | 0.09 | 84 | 1010.2 |
| 20260905020108 | 79 | 331 | 0.0 | 0.0 | 0.00 | 0.09 | 0.09 | 84 | 1010.2 |
| 20260905014533 | 79 | 241 | 0.0 | 0.0 | 0.00 | 0.09 | 0.09 | 84 | 1010.4 |
| 20260905013008 | 78 | 144 | 0.0 | 0.0 | 0.00 | 0.09 | 0.09 | 83 | 1010.4 |
| 20260905011557 | 79 | 91 | 0.0 | 0.0 | 0.00 | 0.09 | 0.09 | 83 | 1010.3 |
| 20260905010025 | 79 | 77 | 0.0 | 0.0 | 0.00 | 0.09 | 0.09 | 82 | 1010.3 |
| 20260905004642 | 80 | 35 | 0.0 | 0.0 | 0.00 | 0.09 | 0.09 | 81 | 1010.4 |
| 20260905003028 | 80 | 35 | 0.0 | 0.0 | 0.00 | 0.09 | 0.09 | 79 | 1010.1 |
| 20260905001610 | 80 | 70 | 0.0 | 1.0 | 0.00 | 0.09 | 0.09 | 78 | 1010.0 |
| 20260905000047 | 81 | 23 | 0.0 | 0.0 | 0.00 | 0.09 | 0.09 | 76 | 1009.8 |
| 20260904234504 | 81 | 44 | 0.0 | 0.0 | 0.00 | 0.09 | 0.09 | 75 | 1009.6 |
| 20260904233052 | 81 | 357 | 0.0 | 1.0 | 0.00 | 0.09 | 0.09 | 75 | 1009.8 |
| 20260904231518 | 82 | 144 | 0.0 | 1.0 | 0.00 | 0.09 | 0.09 | 74 | 1009.9 |
| 20260904230109 | 82 | 98 | 0.0 | 1.0 | 0.00 | 0.09 | 0.09 | 73 | 1010.1 |
| 20260904224530 | 83 | 169 | 0.0 | 3.0 | 0.00 | 0.09 | 0.09 | 72 | 1010.3 |
| 20260904223002 | 83 | 49 | 0.0 | 2.0 | 0.00 | 0.09 | 0.09 | 71 | 1010.4 |
| 20260904221549 | 84 | 50 | 0.0 | 3.0 | 0.00 | 0.09 | 0.09 | 69 | 1010.3 |
| 20260904220012 | 84 | 27 | 0.0 | 6.0 | 0.00 | 0.09 | 0.09 | 68 | 1010.2 |
| 20260904214610 | 85 | 155 | 0.0 | 3.0 | 0.00 | 0.09 | 0.09 | 66 | 1010.2 |
| 20260904213039 | 86 | 50 | 0.0 | 4.0 | 0.00 | 0.09 | 0.09 | 66 | 1010.2 |
| 20260904211504 | 86 | 188 | 1.0 | 4.0 | 0.00 | 0.09 | 0.09 | 65 | 1010.1 |
| 20260904210050 | 87 | 120 | 1.0 | 5.0 | 0.00 | 0.09 | 0.09 | 64 | 1010.2 |
| 20260904204521 | 87 | 50 | 0.0 | 3.0 | 0.00 | 0.09 | 0.09 | 63 | 1010.1 |
| 20260904203104 | 87 | 157 | 0.0 | 5.0 | 0.00 | 0.09 | 0.09 | 63 | 1010.1 |
| 20260904201533 | 87 | 165 | 1.0 | 6.0 | 0.00 | 0.09 | 0.09 | 62 | 1010.2 |
| 20260904200125 | 88 | 185 | 1.0 | 5.0 | 0.00 | 0.09 | 0.09 | 62 | 1010.5 |
| 20260904194602 | 88 | 183 | 1.0 | 6.0 | 0.00 | 0.09 | 0.09 | 60 | 1010.6 |
| 20260904193012 | 88 | 49 | 0.0 | 3.0 | 0.00 | 0.09 | 0.09 | 62 | 1010.7 |
| 20260904191553 | 87 | 79 | 1.0 | 5.0 | 0.00 | 0.09 | 0.09 | 63 | 1011.0 |
| 20260904190025 | 90 | 105 | 1.0 | 4.0 | 0.00 | 0.09 | 0.09 | 61 | 1011.0 |
| 20260904184615 | 90 | 49 | 0.0 | 4.0 | 0.00 | 0.09 | 0.09 | 60 | 1011.0 |
| 20260904183027 | 90 | 12 | 0.0 | 4.0 | 0.00 | 0.09 | 0.09 | 62 | 1011.2 |
| 20260904181616 | 89 | 34 | 0.0 | 3.0 | 0.00 | 0.09 | 0.09 | 62 | 1011.4 |
| 20260904180044 | 90 | 65 | 0.0 | 2.0 | 0.00 | 0.09 | 0.09 | 57 | 1011.4 |
| 20260904174505 | 91 | 141 | 0.0 | 4.0 | 0.00 | 0.09 | 0.09 | 57 | 1011.3 |
| 20260904173044 | 90 | 160 | 0.0 | 3.0 | 0.00 | 0.09 | 0.09 | 57 | 1011.4 |
| 20260904171523 | 88 | 58 | 0.0 | 2.0 | 0.00 | 0.09 | 0.09 | 60 | 1011.4 |
| 20260904170056 | 89 | 51 | 1.0 | 7.0 | 0.00 | 0.09 | 0.09 | 60 | 1011.4 |
| 20260904164526 | 88 | 2 | 1.0 | 4.0 | 0.00 | 0.09 | 0.09 | 61 | 1011.5 |
| 20260904163002 | 88 | 97 | 0.0 | 7.0 | 0.00 | 0.09 | 0.09 | 62 | 1011.5 |
| 20260904161553 | 89 | 255 | 0.0 | 4.0 | 0.00 | 0.09 | 0.09 | 63 | 1011.6 |
| 20260904160013 | 88 | 27 | 1.0 | 5.0 | 0.00 | 0.09 | 0.09 | 62 | 1011.8 |
| 20260904154551 | 87 | 45 | 1.0 | 6.0 | 0.00 | 0.09 | 0.09 | 64 | 1011.8 |
| 20260904153019 | 87 | 51 | 1.0 | 7.0 | 0.00 | 0.09 | 0.09 | 65 | 1011.7 |
| 20260904151609 | 86 | 276 | 2.0 | 8.0 | 0.00 | 0.09 | 0.09 | 66 | 1011.9 |
| 20260904150034 | 85 | 149 | 1.0 | 9.0 | 0.00 | 0.09 | 0.09 | 67 | 1011.8 |
| 20260904144506 | 86 | 9 | 1.0 | 5.0 | 0.00 | 0.09 | 0.09 | 67 | 1011.8 |
| 20260904143044 | 84 | 243 | 0.0 | 5.0 | 0.00 | 0.09 | 0.09 | 69 | 1011.7 |
| 20260904141519 | 84 | 235 | 1.0 | 6.0 | 0.00 | 0.09 | 0.09 | 70 | 1011.7 |
| 20260904134530 | 82 | 269 | 1.0 | 5.0 | 0.00 | 0.10 | 0.09 | 74 | 1011.4 |
| 20260904133104 | 82 | 76 | 1.0 | 5.0 | 0.00 | 0.10 | 0.09 | 75 | 1011.4 |
| 20260904131532 | 80 | 231 | 2.0 | 5.0 | 0.00 | 0.10 | 0.09 | 78 | 1011.5 |
| 20260904130008 | 79 | 356 | 1.0 | 7.0 | 0.00 | 0.10 | 0.09 | 80 | 1011.5 |
| 20260904124544 | 78 | 158 | 1.0 | 7.0 | 0.00 | 0.12 | 0.09 | 82 | 1011.4 |
| 20260904123014 | 77 | 51 | 1.0 | 7.0 | 0.00 | 0.12 | 0.09 | 86 | 1011.5 |
| 20260904121554 | 75 | 172 | 2.0 | 7.0 | 0.00 | 0.12 | 0.09 | 89 | 1011.5 |
| 20260904120038 | 75 | 44 | 2.0 | 6.0 | 0.00 | 0.12 | 0.09 | 91 | 1011.6 |
| 20260904114501 | 74 | 277 | 1.0 | 5.0 | 0.00 | 0.12 | 0.09 | 91 | 1011.4 |
| 20260904113044 | 74 | 172 | 1.0 | 4.0 | 0.00 | 0.12 | 0.09 | 91 | 1011.5 |
| 20260904111513 | 74 | 130 | 0.0 | 3.0 | 0.00 | 0.12 | 0.09 | 92 | 1011.2 |
| 20260904110052 | 74 | 43 | 0.0 | 2.0 | 0.00 | 0.12 | 0.09 | 92 | 1011.3 |
| 20260904104534 | 74 | 51 | 0.0 | 2.0 | 0.00 | 0.21 | 0.09 | 92 | 1010.8 |
| 20260904103105 | 74 | 43 | 0.0 | 2.0 | 0.00 | 0.21 | 0.09 | 92 | 1010.8 |
| 20260904101539 | 74 | 105 | 0.0 | 2.0 | 0.00 | 0.21 | 0.09 | 91 | 1011.0 |
| 20260904100003 | 75 | 185 | 0.0 | 3.0 | 0.00 | 0.21 | 0.09 | 91 | 1010.9 |
| 20260904094554 | 75 | 252 | 0.0 | 3.0 | 0.00 | 0.39 | 0.09 | 91 | 1011.1 |
| 20260904093111 | 75 | 296 | 0.0 | 3.0 | 0.00 | 0.39 | 0.09 | 90 | 1011.0 |
| 20260904091539 | 75 | 172 | 0.0 | 4.0 | 0.00 | 0.39 | 0.09 | 89 | 1011.2 |
| 20260904090014 | 75 | 57 | 0.0 | 3.0 | 0.00 | 0.39 | 0.09 | 88 | 1011.1 |
| 20260904084545 | 75 | 96 | 1.0 | 7.0 | 0.00 | 0.46 | 0.09 | 88 | 1011.3 |
| 20260904083019 | 75 | 64 | 1.0 | 5.0 | 0.01 | 0.46 | 0.09 | 90 | 1011.5 |
| 20260904081559 | 75 | 33 | 1.0 | 4.0 | 0.07 | 0.46 | 0.09 | 90 | 1011.5 |
| 20260904080030 | 75 | 60 | 0.0 | 5.0 | 0.08 | 0.46 | 0.09 | 90 | 1011.5 |
| 20260904074610 | 75 | 25 | 0.0 | 3.0 | 0.09 | 1.19 | 0.09 | 90 | 1011.7 |
| 20260904073035 | 75 | 243 | 0.0 | 4.0 | 0.08 | 1.18 | 0.08 | 88 | 1011.8 |
| 20260904071501 | 76 | 81 | 2.0 | 7.0 | 0.01 | 1.11 | 0.01 | 85 | 1011.7 |
| 20260904070044 | 77 | 72 | 1.0 | 6.0 | 0.01 | 1.11 | 0.01 | 85 | 1011.3 |
| 20260904064508 | 78 | 111 | 1.0 | 5.0 | 0.00 | 1.10 | 0.00 | 85 | 1011.3 |
| 20260904063053 | 79 | 300 | 3.0 | 12.0 | 0.00 | 1.10 | 0.00 | 89 | 1011.2 |
| 20260904061527 | 79 | 160 | 0.0 | 2.0 | 0.00 | 1.10 | 0.00 | 91 | 1011.0 |
| 20260904060116 | 79 | 151 | 0.0 | 0.0 | 0.00 | 1.10 | 0.00 | 90 | 1011.1 |
| 20260904054523 | 79 | 136 | 0.0 | 2.0 | 0.00 | 1.10 | 0.00 | 90 | 1011.0 |
| 20260904053148 | 79 | 160 | 0.0 | 2.0 | 0.00 | 1.10 | 0.00 | 90 | 1011.3 |
| 20260904051545 | 79 | 168 | 0.0 | 0.0 | 0.00 | 1.10 | 0.00 | 89 | 1011.3 |
| 20260904050023 | 79 | 157 | 0.0 | 0.0 | 0.00 | 1.10 | 0.00 | 89 | 1011.8 |
| 20260904044600 | 79 | 120 | 0.0 | 0.0 | 0.00 | 1.10 | 0.00 | 88 | 1011.3 |